Tracking 30313 objects as of 22-Apr-2025
HD Live streaming from Space Station
objects crossing your sky now

THORAD DELTA 1 DEB

Track THORAD DELTA 1 DEB now!
10-day predictions


NORAD ID: 8307
Int'l Code: 1974-089BQ
Perigee: 1,431.8 km
Apogee: 2,170.2 km
Inclination: 101.2 °
Period: 122.5 minutes
Semi major axis: 8171 km
RCS: 0.1335 m2 (medium)
Launch date: November 15, 1974
Source: United States (US)
Launch site: AIR FORCE WESTERN TEST RANGE (AFWTR)

Note: This is SATELLITE DEBRIS
Your satellite tracking list
Your tracking list is empty




NASA's NSSDC Master Catalog

Two Line Element Set (TLE):
1 08307U 74089BQ  25111.77179197  .00000181  00000-0  27654-2 0  9990
2 08307 101.1695 233.2383 0451738 296.4667 235.0569 11.75196998163797
Source of the keplerian elements: AFSPC